Theta_e
351 352 351 348 349 346 348 349 350 347 347 348 346 347 347 346 344 340 345 338 339 338 338 333 336 337 335 335 333 330 340 340 342 343 341 341 340 339 341 339 339 341 339
348 347 345 347 347 346 347 343 341 339 345 344 339 337 338 341 346 345 344 337 336 338 339 338 337 335 337 333 335 333 329 328 333 338 338 342 341 339 339 338 336 335 332
350 349 346 347 348 348 348 346 334 338 345 343 340 337 338 337 338 339 340 340 338 335 337 339 338 338 337 338 334 339 336 329 328 332 337 341 342 341 340 342 344 341 341
349 349 348 346 347 346 347 347 349 347 345 344 341 340 341 340 341 339 337 338 337 336 335 337 338 337 338 337 335 336 339 335 326 329 334 342 343 343 341 341 340 339 338
350 345 348 349 348 349 346 347 348 348 348 345 344 343 342 343 343 346 342 339 340 340 338 335 336 337 336 337 337 334 337 340 336 326 328 333 338 335 334 331 329 329 326
350 347 352 350 350 347 349 347 347 348 349 346 344 343 343 345 344 346 344 344 343 343 341 338 337 338 336 336 336 335 335 338 339 337 326 325 324 325 324 322 321 322 323
353 349 349 352 350 346 349 350 349 349 346 347 345 344 346 346 347 345 346 344 344 343 343 342 341 339 339 337 336 336 334 335 338 339 336 326 323 322 321 321 321 323 324
351 352 347 350 352 350 353 351 347 347 348 348 347 347 344 345 343 342 343 342 343 343 343 342 342 342 339 338 337 337 336 335 336 339 340 336 325 322 321 321 321 322 322
348 349 349 346 353 352 351 351 347 347 348 348 347 344 344 347 345 347 343 343 343 344 344 343 344 343 341 337 337 337 337 335 336 337 337 339 336 325 322 321 320 321 321
351 347 349 347 346 347 353 351 349 349 348 349 349 346 343 346 349 348 349 347 345 348 346 345 344 344 343 342 338 336 336 335 335 335 337 337 339 336 326 323 321 321 322
351 353 348 350 348 344 344 349 353 349 349 348 349 351 349 346 347 349 347 348 349 348 347 346 347 345 345 344 343 342 341 340 339 335 335 336 338 339 337 327 324 323 322
350 351 351 348 343 344 345 347 353 347 346 348 351 350 351 351 350 350 349 348 348 350 349 349 348 347 347 346 345 345 342 340 340 338 335 337 337 340 340 338 333 326 323
354 352 351 351 350 349 347 347 349 350 346 345 347 350 351 351 350 350 350 349 349 348 350 349 348 349 346 347 347 345 345 343 340 339 335 335 336 336 339 340 340 337 333
350 351 352 351 352 351 347 348 349 347 346 347 350 350 348 348 351 352 350 350 350 351 350 350 350 349 349 351 347 347 345 345 343 340 336 334 333 335 335 335 338 340 340
356 356 354 354 353 351 351 346 346 347 347 349 351 351 349 350 352 353 351 350 350 351 351 350 350 351 349 346 345 344 345 347 345 343 339 335 334 333 337 337 334 335 338
355 350 356 355 353 352 352 349 351 348 347 348 349 351 353 353 352 354 353 350 352 354 352 351 350 352 350 345 345 345 346 347 346 344 343 343 340 339 337 339 336 334 335
358 358 355 352 350 350 350 349 349 349 347 348 353 350 348 348 349 349 353 355 354 353 352 352 352 352 351 342 336 338 340 345 345 344 344 344 343 343 342 341 338 335 335
356 357 356 356 354 353 355 356 355 353 349 347 347 348 348 348 351 349 349 352 355 353 351 351 352 349 350 350 344 338 340 339 341 341 340 342 344 343 343 342 342 341 339
354 355 359 358 357 356 357 355 357 355 356 354 352 353 350 351 350 350 352 352 352 353 353 352 351 352 351 351 349 343 339 339 338 332 334 334 341 342 343 341 341 341 340
349 334 349 357 357 358 358 355 356 356 357 358 356 357 357 354 354 352 353 356 354 354 354 353 353 352 352 353 351 348 346 346 344 340 337 339 341 341 342 342 343 343 342
355 354 353 354 351 350 349 348 350 354 353 355 358 358 357 357 355 356 357 356 355 355 355 353 354 355 352 353 352 350 347 347 347 348 346 343 342 346 344 341 342 343 343
351 350 350 350 349 348 344 345 346 348 349 354 357 357 357 358 359 360 360 359 355 357 355 356 353 355 354 353 352 351 352 348 349 349 350 346 345 342 347 348 347 346 347
354 351 349 349 345 344 343 339 341 342 347 351 353 356 357 361 359 360 358 356 354 354 358 354 353 354 354 354 350 350 350 351 350 350 349 348 351 350 349 349 350 349 348
336 332 334 328 330 333 334 334 335 337 339 348 352 354 357 357 359 358 358 359 360 354 353 353 352 350 350 352 354 349 349 349 346 347 351 351 346 346 349 350 350 349 348
334 325 324 325 324 322 324 325 327 335 334 344 351 353 354 356 359 357 358 361 360 356 358 357 353 352 349 349 354 352 351 348 345 343 348 346 347 349 349 350 348 348 348
335 328 324 325 326 326 323 325 337 348 353 352 359 355 358 360 359 358 357 358 360 356 356 355 354 358 353 352 349 350 351 349 351 351 349 349 349 349 349 348 348 348 347
Wind_Speed
5 7 7 7 4 5 6 9 7 7 4 4 5 2 7 6 10 12 6 5 2 1 2 2 3 2 2 3 3 2 2 2 3 3 5 5 7 7 6 7 8 8 7
9 9 7 8 7 6 9 8 10 10 8 8 5 3 2 6 6 6 7 10 5 2 1 2 1 1 1 1 1 1 1 1 2 3 3 5 6 7 7 7 8 9 8
9 5 6 10 9 7 10 10 6 6 5 6 8 6 7 5 5 8 9 9 8 18 5 6 8 4 4 4 3 3 1 2 2 4 5 5 6 7 8 8 8 9 9
9 9 6 5 10 8 8 7 5 6 8 6 4 4 5 5 7 8 12 12 13 18 23 10 11 15 10 9 10 5 5 3 3 4 6 7 7 7 7 9 9 9 10
8 13 10 8 8 8 7 9 9 12 10 8 5 5 6 6 8 10 12 13 13 18 17 24 20 17 18 15 13 13 8 7 4 5 7 9 10 9 9 10 10 10 10
7 11 10 12 11 11 9 11 14 15 11 10 6 5 9 5 7 12 12 11 15 13 16 20 23 25 25 21 20 21 19 12 9 7 8 9 9 9 10 10 11 11 11
12 7 10 11 9 12 12 13 15 15 13 9 7 7 5 5 7 9 10 7 9 11 13 14 19 23 24 27 25 26 28 19 14 12 10 11 10 10 11 11 12 12 12
10 9 9 7 5 7 12 12 12 11 12 9 9 7 4 4 5 4 8 8 5 8 9 11 15 21 26 22 26 28 31 30 21 16 14 13 13 12 13 13 13 13 13
11 13 9 9 11 9 7 10 8 9 10 10 12 7 4 3 6 8 11 9 7 7 6 6 9 17 23 26 26 28 27 30 26 21 20 16 15 14 15 15 15 15 14
10 9 11 10 11 9 12 9 9 9 9 11 12 11 13 10 6 5 6 6 15 11 11 11 10 12 16 23 29 30 32 30 31 29 25 22 19 17 17 17 17 16 16
13 11 12 13 12 11 11 9 12 14 10 11 11 10 9 11 12 15 13 10 13 15 16 17 16 16 15 20 21 27 31 32 34 32 29 26 22 20 20 19 19 19 18
14 14 16 17 14 13 12 14 12 16 14 14 13 13 13 14 12 13 14 12 14 14 13 14 11 11 14 19 19 18 21 25 27 35 31 27 25 23 22 22 20 20 20
16 19 19 17 17 15 15 15 18 17 16 16 15 15 13 18 18 16 17 12 14 13 13 11 12 11 12 13 16 18 18 21 26 31 33 29 27 25 24 23 23 22 21
18 22 19 20 16 16 18 17 17 18 18 16 16 17 17 18 17 15 14 14 14 11 10 12 9 9 8 12 14 16 19 20 24 29 33 32 29 27 26 25 25 24 24
22 10 11 14 16 18 16 19 20 19 18 19 19 19 19 14 14 14 13 14 13 9 8 8 5 5 7 9 10 13 17 21 21 23 31 35 35 33 30 29 28 28 27
17 21 17 19 21 22 22 19 20 19 17 18 19 17 18 15 15 14 12 12 12 11 10 9 5 5 7 8 5 8 10 18 20 20 24 26 32 35 36 33 32 31 29
23 21 22 25 24 23 21 21 23 22 19 21 20 19 20 17 17 14 15 9 12 15 14 9 10 10 11 5 1 3 1 9 9 16 20 21 27 29 32 34 35 35 35
19 23 23 24 24 22 21 21 23 24 22 22 24 22 22 18 18 16 15 13 17 16 12 12 11 12 12 9 6 5 3 3 7 9 6 15 19 24 25 29 33 35 36
16 16 19 20 23 21 20 22 25 26 27 25 25 24 22 20 20 20 20 18 19 18 16 13 11 10 11 10 8 6 6 7 7 5 8 8 12 15 18 19 24 31 33
17 21 19 18 21 19 17 19 22 25 27 26 26 27 25 25 24 23 22 20 18 17 13 14 12 13 12 12 12 10 9 10 9 6 8 8 8 9 11 15 22 26 30
15 17 15 17 20 18 18 24 23 22 23 28 26 26 26 26 25 22 21 20 19 16 15 14 15 14 13 12 17 14 10 10 10 11 8 8 8 8 8 11 14 19 21
22 16 20 22 23 21 18 23 26 26 21 20 26 25 24 24 24 22 22 24 19 18 16 15 14 16 14 16 17 17 17 16 18 16 15 15 12 9 3 5 6 7 8
18 17 21 22 21 23 23 21 26 26 25 20 21 24 23 22 18 19 18 19 23 26 22 17 19 18 16 17 18 19 19 17 15 15 13 15 12 15 12 13 16 15 12
7 6 10 14 18 19 17 18 15 33 36 31 25 25 26 25 24 18 21 21 18 21 25 25 23 21 19 19 16 20 23 24 23 19 16 19 14 18 13 15 17 16 13
8 6 8 8 4 5 7 10 15 14 11 26 26 27 28 26 25 22 23 21 19 17 16 13 15 15 16 21 20 20 20 20 23 21 15 21 22 18 17 17 19 16 15
14 15 14 12 11 11 10 10 10 12 21 24 24 27 24 26 28 28 25 24 23 21 17 16 17 22 20 19 20 23 23 19 19 18 20 23 19 19 19 15 12 11 16
Wind_Direction
151 154 138 171 197 127 130 171 182 179 182 199 223 173 70 102 118 169 201 167 191 106 87 95 111 85 81 44 29 96 122 92 104 133 160 171 178 172 160 164 162 155 160
172 199 198 164 174 156 215 232 231 202 209 224 219 256 145 126 162 182 177 184 208 159 210 267 350 175 193 172 177 30 181 269 243 204 189 182 175 174 168 175 172 170 167
186 197 186 188 183 205 216 262 223 210 243 264 265 242 273 235 220 226 240 242 238 237 226 233 238 242 230 230 236 225 263 247 252 220 207 198 194 181 176 165 165 169 168
198 178 222 208 200 220 236 280 286 267 274 288 257 239 309 291 272 251 252 259 253 250 231 240 238 233 238 230 239 250 247 270 258 234 210 204 180 179 184 183 180 169 163
228 183 186 237 214 230 239 222 244 267 268 271 259 263 284 276 249 262 256 259 268 259 245 231 236 231 232 235 223 237 251 251 260 250 222 221 222 216 210 194 190 181 172
228 199 193 213 225 214 251 234 245 253 260 263 250 272 307 270 246 254 269 269 266 271 251 238 232 235 236 231 226 222 232 235 241 248 239 221 226 206 194 190 185 179 175
235 242 224 216 232 230 230 243 249 253 269 263 267 277 293 282 255 278 271 286 273 275 269 255 237 235 237 230 226 225 221 227 226 234 241 232 219 211 199 198 195 189 185
245 252 241 232 239 240 259 257 260 263 265 250 249 252 279 277 229 283 265 252 267 265 266 263 245 236 232 232 224 222 222 223 227 228 231 235 227 220 212 208 205 201 198
227 244 248 234 230 233 271 284 287 275 254 249 242 242 255 266 256 277 247 251 247 233 264 278 257 234 236 228 223 225 226 224 227 230 232 233 232 225 224 217 217 213 210
266 262 251 255 242 236 242 271 269 266 255 251 248 251 251 244 262 271 259 252 241 265 270 274 267 256 239 234 231 229 231 233 230 232 237 233 234 229 229 223 223 225 222
259 262 255 251 251 247 241 241 254 274 262 257 261 254 263 267 255 259 277 251 251 264 276 276 270 254 257 237 237 236 235 236 233 229 232 233 231 232 230 230 226 228 232
265 256 253 257 264 258 249 241 250 263 262 255 253 259 254 263 270 272 268 265 277 281 281 282 277 265 265 243 241 242 234 232 230 222 226 230 230 233 234 234 233 232 233
245 258 258 246 254 266 264 258 247 257 259 258 252 256 257 264 271 272 272 286 281 289 273 289 277 270 263 254 242 238 241 227 226 225 225 228 228 229 233 237 239 239 239
253 252 253 248 251 263 270 256 258 262 261 258 258 263 262 266 273 284 283 283 290 288 289 280 280 278 278 267 269 242 242 230 228 228 226 229 230 233 235 236 238 241 243
240 285 252 250 263 271 274 257 258 262 263 262 264 266 275 278 276 280 282 274 268 271 288 283 248 265 279 291 271 243 246 227 232 232 228 232 238 240 241 240 239 239 240
238 237 242 240 253 264 268 265 265 265 264 260 262 267 272 283 279 281 282 279 255 258 270 276 270 256 284 298 287 260 239 230 234 226 231 233 236 238 238 243 241 238 238
229 234 247 254 260 266 264 263 263 268 268 269 267 264 263 272 277 277 274 259 254 260 261 264 241 239 250 266 282 97 118 231 235 220 229 237 237 233 236 239 238 240 243
246 248 255 260 263 263 264 266 267 267 269 264 269 269 272 272 271 269 260 256 252 272 261 258 244 243 234 246 254 254 200 191 181 195 207 228 235 233 238 242 240 242 244
264 268 265 268 267 271 272 270 268 266 269 270 270 272 271 270 267 265 274 268 252 259 265 259 240 252 225 230 248 228 210 190 209 190 159 156 218 226 234 244 244 242 244
272 289 245 264 264 269 276 276 273 272 268 266 268 268 268 267 267 267 269 269 263 258 257 253 250 248 231 234 249 235 231 239 217 243 250 231 251 248 235 244 252 250 246
266 260 265 269 267 279 283 285 274 267 267 274 269 268 269 267 266 266 265 265 264 254 250 254 252 250 255 229 243 239 240 261 263 251 250 252 254 263 276 276 270 264 258
269 265 266 269 274 276 283 270 295 282 266 265 271 272 272 273 264 259 259 268 259 255 249 238 255 247 249 255 243 247 248 248 253 252 252 257 265 253 238 245 292 288 281
268 269 270 273 281 281 267 278 271 276 294 269 264 271 273 267 273 273 271 266 255 245 249 251 245 239 245 250 245 241 242 245 252 263 235 253 256 265 276 279 270 264 288
278 287 298 305 283 287 289 290 280 243 269 275 268 265 264 264 257 264 254 253 265 252 249 252 252 254 258 254 257 244 249 246 250 245 248 255 256 258 256 259 269 263 246
238 237 263 296 340 324 358 29 30 80 263 285 273 268 265 261 261 250 247 246 256 257 256 269 262 262 266 248 251 258 262 255 257 258 255 259 260 251 246 254 256 262 261
256 262 267 268 277 293 302 304 290 255 266 284 280 270 269 265 261 254 247 244 247 249 252 249 254 256 262 260 254 249 252 249 249 258 254 251 252 253 260 255 256 256 255